Wind_Speed
12 17 13 12 12 11 10 9 12 10 10 10 10 9 9 9 9 9 9 9 10 11 12 13 12 11 10 10 10 11 10 10 10 10 10 10 10 10 10 11 11 11 12
13 14 15 13 11 10 9 9 8 9 8 7 7 6 5 5 5 6 8 9 10 12 13 14 14 14 12 10 9 8 8 8 9 9 10 11 12 12 11 10 10 10 12
17 15 16 14 11 9 6 6 7 5 5 3 3 3 3 3 3 5 7 9 12 12 13 13 14 15 15 13 10 10 9 9 9 10 10 11 12 12 11 10 9 9 10
19 16 14 13 11 9 6 4 4 3 0 1 3 4 4 4 6 7 8 10 11 12 14 13 14 14 14 15 14 12 13 14 14 14 13 13 12 12 12 11 10 9 10
18 15 11 8 6 7 7 6 5 3 3 3 4 6 5 5 7 9 10 12 14 15 15 15 14 15 14 13 14 14 15 15 15 16 16 16 15 14 14 13 12 11 11
17 14 11 7 9 9 8 7 8 8 8 7 7 7 8 8 9 12 13 14 14 16 17 18 18 17 18 18 17 15 15 16 16 16 16 16 15 15 13 13 12 12 12
15 13 13 15 9 10 10 11 11 10 8 7 8 9 10 12 13 13 14 15 15 16 18 19 21 20 20 20 19 19 19 20 20 19 18 18 17 16 15 14 13 12 13
21 21 18 13 10 10 15 14 12 11 10 11 12 15 15 16 16 18 18 17 16 16 17 18 20 21 22 21 22 22 21 22 22 22 20 19 19 19 17 16 15 13 13
14 15 15 11 11 17 18 14 14 15 15 16 17 18 18 17 17 17 19 18 17 17 18 20 21 22 23 24 24 24 24 24 24 24 22 21 20 19 19 17 16 15 14
19 20 17 16 16 17 20 20 20 18 18 18 18 18 18 18 19 20 20 20 20 20 20 22 21 23 24 25 25 25 25 25 25 25 25 24 22 21 20 20 17 17 16
22 22 21 19 19 20 24 26 24 20 20 18 18 19 19 20 21 22 23 23 22 22 22 23 24 25 26 28 28 28 27 26 25 25 24 24 22 22 22 21 21 18 19
22 26 27 26 26 24 22 21 20 22 24 23 22 19 21 24 19 21 22 23 21 25 27 23 23 24 25 28 29 31 30 29 28 27 26 26 23 20 19 21 22 22 21
23 22 21 25 25 21 21 23 23 23 25 24 25 24 22 19 20 23 22 22 24 22 22 21 20 19 22 27 30 31 30 30 29 27 25 25 23 20 21 20 21 22 23
27 25 25 22 24 22 23 22 19 21 24 25 25 23 19 18 21 19 21 19 19 17 16 19 19 20 22 26 28 30 32 31 29 27 25 26 24 24 24 24 23 23 24
27 27 26 26 25 24 24 23 25 24 25 24 24 21 18 17 17 16 15 15 15 15 16 18 18 17 22 23 27 31 29 27 25 24 25 27 28 29 30 29 28 26 26
27 27 25 25 24 25 27 29 28 26 26 25 22 22 18 18 15 14 14 14 14 15 17 19 18 18 21 17 24 22 24 23 25 24 25 26 29 28 30 30 30 29 28
25 25 24 24 24 25 26 25 27 28 26 25 23 22 18 18 17 16 17 17 16 17 19 19 19 18 14 19 19 22 22 21 23 23 25 25 28 28 31 31 31 30 29
28 27 25 25 25 25 26 27 29 29 27 26 24 23 20 20 19 19 20 20 19 19 19 20 18 15 19 19 19 19 22 21 23 28 27 28 30 32 33 31 30 29 30
29 29 29 29 28 29 29 28 29 30 28 27 25 25 22 23 21 21 22 21 21 21 20 21 18 20 20 19 21 19 19 22 25 27 25 23 26 28 27 28 27 27 30
32 32 33 33 31 30 30 28 29 29 29 28 27 27 25 26 24 24 24 22 22 22 21 21 20 23 22 21 22 21 19 20 23 27 27 28 27 28 31 34 32 30 30
31 33 35 36 36 34 32 31 30 30 29 30 30 29 29 29 28 27 27 24 25 24 22 22 21 23 23 21 23 23 24 23 22 24 26 25 26 27 29 33 34 36 34
31 33 35 37 37 36 35 35 32 33 33 32 33 32 32 32 31 31 29 27 27 25 23 23 23 24 23 22 23 23 23 22 20 21 22 22 22 22 24 25 28 30 32
31 33 35 34 34 36 36 37 37 35 36 38 38 37 35 35 34 34 31 30 29 28 25 24 24 24 23 24 23 22 22 22 22 21 21 20 21 22 22 22 22 24 25
31 31 33 33 33 35 35 39 38 38 38 40 41 41 39 37 36 35 33 31 29 29 28 27 25 24 24 25 24 23 21 21 21 21 19 18 19 21 21 21 21 21 22
37 34 33 35 34 35 35 36 38 39 39 41 43 43 43 41 39 38 35 32 30 30 28 27 26 24 25 26 25 22 20 19 18 18 21 20 18 20 22 21 20 19 19
35 35 35 36 37 36 35 36 37 38 36 39 42 44 42 42 42 40 38 35 33 30 29 28 27 26 26 27 27 22 20 17 16 16 18 21 22 19 20 20 20 20 17
Wind_Direction
189 166 167 176 168 158 152 128 111 97 86 72 55 52 48 35 28 29 23 25 20 13 15 14 13 5 1 356 354 350 346 344 341 341 345 346 353 357 4 11 12 10 11
189 180 164 167 168 163 160 148 120 109 90 66 53 41 39 42 46 31 23 15 15 13 13 17 13 9 3 349 341 342 341 338 339 344 346 350 352 352 353 355 356 354 2
179 179 169 167 177 164 165 158 138 111 95 71 14 37 25 17 27 19 9 4 4 3 5 7 7 5 7 359 348 338 336 335 334 339 346 348 345 346 344 338 338 341 345
171 175 178 172 179 177 175 194 175 161 261 294 334 342 342 332 339 343 352 352 349 347 347 349 352 353 357 359 357 338 332 334 334 335 335 336 338 340 337 334 333 334 335
168 168 187 186 192 219 214 229 242 224 236 258 282 290 299 309 322 327 333 337 337 336 333 334 337 334 335 338 340 341 341 338 328 325 326 325 330 333 334 332 330 328 327
167 173 183 197 206 211 217 226 245 244 241 250 269 278 309 316 321 321 324 326 326 325 324 324 323 324 322 324 324 322 325 326 325 322 315 313 315 319 326 326 325 324 323
182 188 196 208 215 231 232 234 240 250 256 271 289 292 296 299 300 299 302 307 310 313 313 313 312 311 311 310 311 313 316 317 317 316 314 310 309 310 311 315 319 319 316
202 208 211 228 248 248 241 237 256 269 276 281 282 285 285 287 289 293 295 295 297 301 304 306 306 305 305 305 304 303 303 304 306 308 310 307 305 305 304 306 308 308 305
216 223 223 260 244 254 253 258 269 276 279 280 276 277 280 285 287 288 288 289 291 292 295 298 300 300 300 302 302 303 304 304 303 304 305 305 301 296 300 303 303 302 302
226 226 236 239 245 268 277 285 276 277 279 276 279 278 280 282 284 284 283 286 289 289 291 292 293 294 295 295 295 296 299 301 304 306 306 304 301 297 295 299 302 302 298
225 237 240 242 250 262 270 287 285 279 272 270 275 270 272 280 282 281 284 284 285 287 290 289 290 290 293 294 292 292 290 292 295 297 300 300 300 299 297 294 294 296 297
216 232 240 249 258 254 268 273 274 272 269 266 274 275 269 283 280 286 290 288 284 294 294 286 284 286 292 293 294 290 291 294 295 297 298 300 301 297 298 296 294 293 296
211 221 235 249 244 242 249 254 262 259 263 267 268 274 276 269 280 287 280 294 291 295 293 296 291 290 292 290 289 288 287 290 291 293 293 294 290 291 295 294 292 295 298
222 232 234 241 228 229 242 254 249 259 261 267 268 271 269 274 279 283 275 284 292 299 307 301 296 293 294 287 286 292 287 291 289 286 288 287 287 284 290 296 297 298 299
232 236 239 240 234 234 235 244 250 256 258 259 265 266 277 272 273 273 280 290 302 311 312 302 298 296 296 289 281 288 291 288 289 294 296 292 291 290 291 292 291 296 297
235 237 239 241 246 246 246 246 250 256 259 261 262 267 271 270 275 280 288 293 302 307 306 301 302 295 302 297 294 290 293 292 289 290 295 292 289 290 289 290 289 292 295
239 242 242 246 245 246 249 247 248 253 256 257 261 265 264 269 276 281 286 289 297 301 299 300 299 298 281 300 299 296 295 289 287 293 299 300 295 294 292 291 293 292 292
240 245 247 246 247 251 249 245 243 245 250 255 259 261 261 263 270 279 286 290 295 296 297 300 299 289 301 302 300 300 303 295 287 293 296 295 292 296 296 297 293 293 291
238 241 245 244 243 241 239 239 239 241 245 249 254 259 262 262 265 271 276 280 286 289 290 296 292 295 300 298 297 297 293 289 296 298 296 303 298 292 297 295 294 288 289
242 240 239 241 242 240 238 234 237 239 242 245 248 253 259 261 264 267 270 275 280 282 287 291 293 295 294 295 296 297 298 295 296 300 306 309 307 298 292 290 291 292 289
252 244 240 241 242 242 243 242 240 240 239 246 247 249 253 256 261 265 268 273 276 280 286 288 289 288 290 289 294 294 295 298 302 307 310 311 308 305 301 292 292 286 289
260 255 249 244 245 244 244 247 247 249 248 247 251 251 254 256 257 259 263 267 272 277 279 282 284 285 287 286 286 286 293 299 303 303 306 307 308 305 305 307 304 295 286
254 251 252 250 251 252 252 251 251 251 253 253 251 252 254 256 257 257 260 263 266 270 274 275 276 276 279 278 277 282 288 296 304 306 309 315 315 315 316 316 315 307 296
254 253 251 252 254 254 255 258 258 257 256 255 255 254 256 258 260 261 260 261 262 265 267 271 272 273 273 271 273 277 287 294 299 303 306 313 318 320 323 324 319 317 313
253 252 250 250 250 254 257 258 258 258 258 256 256 256 257 258 260 263 264 263 261 261 261 265 269 271 271 268 270 276 283 287 295 303 310 313 319 322 327 329 326 323 321
260 258 254 246 246 248 253 257 258 255 253 256 259 260 260 261 261 262 262 260 260 259 258 261 265 267 268 266 266 270 276 285 296 301 306 312 315 319 324 329 331 331 328
Height
5927 5927 5930 5934 5935 5935 5935 5934 5933 5935 5936 5937 5938 5937 5937 5938 5938 5938 5937 5937 5936 5936 5936 5935 5935 5934 5933 5932 5930 5929 5928 5926 5925 5924 5922 5920 5919 5918 5917 5916 5914 5913 5912
5926 5929 5930 5933 5935 5936 5936 5935 5934 5934 5936 5938 5938 5939 5938 5937 5937 5938 5938 5937 5937 5936 5936 5936 5935 5934 5933 5931 5930 5929 5927 5926 5924 5923 5921 5920 5918 5917 5916 5915 5914 5912 5911
5924 5928 5929 5932 5935 5936 5937 5936 5936 5938 5938 5938 5939 5938 5938 5939 5939 5939 5938 5937 5936 5935 5935 5935 5934 5934 5932 5931 5930 5929 5927 5926 5923 5921 5919 5917 5916 5915 5915 5913 5912 5911 5910
5923 5927 5930 5931 5933 5936 5936 5937 5937 5937 5938 5939 5939 5939 5938 5938 5938 5938 5937 5936 5935 5935 5934 5934 5934 5933 5931 5930 5929 5928 5926 5924 5922 5920 5919 5916 5915 5914 5913 5912 5910 5909 5908
5924 5927 5931 5933 5934 5935 5936 5937 5937 5936 5937 5937 5937 5938 5938 5937 5937 5938 5937 5936 5935 5934 5933 5932 5932 5932 5931 5929 5928 5926 5925 5923 5921 5919 5917 5916 5915 5913 5912 5910 5909 5907 5905
5924 5928 5930 5931 5932 5933 5934 5936 5936 5935 5935 5935 5936 5936 5936 5936 5935 5936 5936 5935 5934 5932 5931 5930 5929 5930 5929 5928 5927 5925 5923 5921 5919 5918 5916 5915 5913 5911 5910 5909 5907 5905 5903
5924 5926 5927 5929 5930 5932 5933 5933 5933 5933 5933 5934 5935 5935 5934 5934 5932 5932 5932 5932 5932 5930 5929 5928 5927 5926 5926 5925 5923 5923 5922 5919 5917 5916 5914 5913 5911 5909 5907 5905 5904 5902 5901
5924 5924 5925 5928 5929 5930 5930 5931 5931 5932 5931 5932 5931 5932 5931 5931 5930 5929 5928 5928 5927 5927 5926 5925 5924 5923 5922 5921 5920 5919 5918 5917 5915 5914 5912 5911 5909 5908 5906 5904 5902 5900 5898
5923 5923 5925 5926 5927 5928 5928 5929 5929 5929 5928 5928 5927 5928 5928 5927 5927 5926 5926 5925 5925 5924 5922 5922 5921 5920 5918 5917 5916 5915 5915 5913 5912 5911 5909 5908 5906 5904 5903 5902 5900 5897 5896
5920 5921 5923 5924 5925 5925 5926 5926 5926 5926 5925 5924 5924 5924 5924 5923 5923 5922 5921 5921 5920 5921 5919 5919 5918 5916 5914 5914 5912 5911 5910 5910 5908 5907 5906 5904 5903 5901 5900 5899 5897 5895 5893
5917 5919 5920 5921 5922 5923 5923 5924 5923 5922 5922 5921 5921 5920 5920 5920 5919 5919 5918 5917 5915 5916 5915 5915 5914 5913 5911 5910 5909 5907 5906 5905 5904 5903 5901 5900 5899 5898 5896 5894 5893 5890 5889
5913 5914 5915 5917 5917 5919 5920 5920 5919 5918 5917 5917 5916 5916 5917 5917 5915 5915 5914 5913 5911 5911 5910 5910 5910 5909 5907 5905 5903 5903 5902 5902 5900 5900 5899 5897 5895 5894 5892 5891 5889 5888 5886
5908 5910 5911 5912 5913 5914 5914 5915 5913 5914 5913 5913 5913 5913 5913 5912 5912 5911 5911 5909 5908 5907 5906 5905 5905 5905 5904 5901 5899 5897 5897 5897 5895 5895 5894 5893 5891 5890 5889 5886 5885 5885 5883
5905 5906 5908 5908 5908 5908 5910 5910 5909 5909 5909 5909 5909 5909 5909 5908 5908 5907 5907 5906 5906 5904 5902 5901 5900 5901 5900 5898 5895 5893 5892 5891 5890 5890 5889 5888 5887 5886 5885 5883 5883 5881 5879
5900 5901 5902 5903 5904 5904 5905 5906 5905 5905 5905 5905 5906 5905 5905 5904 5904 5904 5904 5903 5902 5900 5899 5898 5897 5896 5895 5893 5891 5890 5887 5886 5885 5885 5885 5884 5884 5882 5881 5880 5878 5877 5876
5896 5896 5896 5897 5898 5900 5900 5900 5900 5900 5900 5901 5900 5901 5901 5900 5900 5900 5900 5900 5898 5896 5896 5895 5892 5892 5890 5889 5888 5887 5885 5883 5881 5880 5881 5880 5877 5877 5875 5875 5874 5873 5872
5891 5890 5891 5892 5893 5894 5894 5894 5895 5895 5896 5896 5896 5897 5898 5897 5896 5896 5896 5896 5894 5893 5892 5891 5889 5887 5887 5885 5885 5882 5881 5879 5878 5878 5877 5877 5874 5873 5871 5870 5869 5868 5867
5884 5884 5885 5886 5888 5888 5889 5890 5890 5891 5891 5891 5892 5893 5893 5893 5892 5891 5891 5891 5890 5889 5889 5887 5885 5884 5882 5880 5880 5880 5878 5876 5875 5875 5874 5873 5870 5868 5866 5866 5864 5863 5862
5878 5879 5879 5880 5881 5882 5883 5884 5885 5886 5886 5886 5887 5888 5888 5888 5888 5887 5886 5886 5885 5885 5885 5883 5881 5880 5878 5877 5876 5876 5875 5874 5872 5870 5870 5868 5866 5863 5860 5859 5858 5857 5857
5871 5872 5873 5874 5876 5877 5877 5878 5879 5880 5880 5881 5882 5882 5882 5882 5882 5882 5882 5881 5880 5881 5880 5878 5877 5876 5875 5874 5873 5873 5872 5871 5868 5866 5865 5863 5861 5858 5856 5854 5853 5853 5851
5865 5866 5866 5866 5867 5868 5869 5870 5872 5873 5874 5874 5874 5875 5875 5876 5876 5876 5876 5876 5876 5876 5875 5873 5873 5872 5871 5870 5869 5869 5868 5867 5864 5862 5860 5858 5856 5853 5852 5850 5848 5847 5846
5856 5858 5860 5860 5860 5861 5861 5862 5864 5865 5866 5867 5867 5868 5869 5869 5870 5870 5870 5870 5870 5869 5869 5869 5868 5867 5866 5865 5866 5865 5863 5862 5861 5859 5857 5855 5852 5850 5848 5845 5842 5840 5839
5849 5849 5850 5852 5853 5853 5854 5855 5856 5858 5859 5859 5860 5861 5862 5862 5863 5864 5864 5863 5863 5863 5862 5863 5863 5861 5861 5862 5862 5861 5859 5857 5856 5855 5854 5851 5848 5846 5843 5841 5838 5835 5833
5841 5842 5843 5844 5845 5845 5846 5846 5847 5849 5850 5851 5851 5852 5853 5853 5854 5855 5856 5856 5856 5856 5856 5857 5857 5857 5858 5857 5857 5856 5855 5854 5853 5852 5851 5849 5846 5843 5840 5837 5834 5831 5829
5832 5834 5836 5836 5838 5837 5838 5839 5840 5840 5841 5842 5843 5844 5845 5844 5845 5846 5847 5848 5849 5850 5850 5850 5851 5851 5852 5852 5852 5852 5851 5851 5850 5848 5844 5844 5843 5839 5836 5834 5831 5829 5826
5822 5823 5824 5826 5828 5828 5829 5831 5832 5832 5833 5833 5833 5833 5835 5836 5837 5838 5838 5839 5840 5841 5842 5843 5844 5845 5846 5847 5847 5847 5847 5846 5845 5844 5842 5839 5837 5836 5834 5831 5829 5826 5824